KLM777 LSZH-EDDF

Flight info

Callsign KLM777
Flight time N/A
Altitude 20000
Route DEGES Z1 SUDEN T164 KOVAN T163 SPESA SPESA5C
Aircraft A35K/H-SDE2E3GHIJ3J4J5LM1ORWXY/LB1D1

Departure

Time 2026-02-19 13:03
Airport Zürich Airport (LSZH)

Arrival

Time N/A
Airport Frankfurt Main Airport (EDDF)
Time Latitude Longitude Altitude Speed Heading
2026-02-19 12:13 47.45590 8.55460 1403 ft 0 kts
2026-02-19 12:55 47.45580 8.55459 1413 ft 3 kts
2026-02-19 12:55 47.45559 8.55456 1412 ft 3 kts
2026-02-19 12:55 47.45537 8.55458 1411 ft 3 kts 342°
2026-02-19 12:56 47.45517 8.55472 1413 ft 3 kts 320°
2026-02-19 12:56 47.45511 8.55477 1413 ft 0 kts 302°
2026-02-19 12:57 47.45568 8.55283 1411 ft 33 kts 312°
2026-02-19 12:57 47.45661 8.55191 1411 ft 8 kts 336°
2026-02-19 12:57 47.45726 8.55149 1409 ft 13 kts 336°
2026-02-19 12:57 47.45829 8.55070 1409 ft 24 kts 332°
2026-02-19 12:58 47.45981 8.54952 1410 ft 25 kts 334°
2026-02-19 12:58 47.46141 8.54850 1410 ft 26 kts 336°
2026-02-19 12:58 47.46308 8.54746 1409 ft 27 kts 340°
2026-02-19 12:58 47.46480 8.54626 1407 ft 28 kts 334°
2026-02-19 12:59 47.46660 8.54499 1404 ft 29 kts 334°
2026-02-19 12:59 47.46849 8.54382 1408 ft 30 kts 338°
2026-02-19 12:59 47.47032 8.54259 1414 ft 29 kts 335°
2026-02-19 12:59 47.47214 8.54131 1413 ft 29 kts 333°
2026-02-19 13:00 47.47404 8.54003 1411 ft 30 kts 336°
2026-02-19 13:00 47.47671 8.53820 1412 ft 17 kts 324°
2026-02-19 13:00 47.47677 8.53687 1412 ft 14 kts 225°
2026-02-19 13:01 47.47618 8.53641 1411 ft 7 kts 202°
2026-02-19 13:01 47.47566 8.53623 1411 ft 8 kts 184°
2026-02-19 13:01 47.47504 8.53639 1408 ft 10 kts 158°
2026-02-19 13:01 47.47444 8.53678 1410 ft 6 kts 155°
2026-02-19 13:02 47.47431 8.53687 1406 ft 1 kts 155°
2026-02-19 13:02 47.47303 8.53777 1409 ft 52 kts 154°
2026-02-19 13:02 47.46785 8.54130 1406 ft 110 kts 155°
2026-02-19 13:02 47.45933 8.54720 1413 ft 159 kts 155°
2026-02-19 13:03 47.44895 8.55429 1967 ft 154 kts 155°
2026-02-19 13:03 47.44048 8.56278 2638 ft 155 kts 128°
2026-02-19 13:03 47.43712 8.57921 2742 ft 187 kts 89°
2026-02-19 13:03 47.44272 8.59780 2862 ft 215 kts 45°
2026-02-19 13:04 47.45362 8.61421 3194 ft 235 kts 57°
2026-02-19 13:04 47.46159 8.66539 3884 ft 274 kts 87°
2026-02-19 13:04 47.46277 8.69393 4452 ft 284 kts 90°
2026-02-19 13:05 47.46360 8.72361 5061 ft 292 kts 89°
2026-02-19 13:05 47.46441 8.75329 5780 ft 295 kts 90°
2026-02-19 13:05 47.46537 8.78393 6461 ft 300 kts 89°
2026-02-19 13:05 47.46618 8.81484 7233 ft 301 kts 92°
2026-02-19 13:06 47.46387 8.84551 8012 ft 300 kts 102°
2026-02-19 13:06 47.45964 8.87581 8792 ft 301 kts 105°
2026-02-19 13:06 47.45501 8.90611 9535 ft 303 kts 104°
2026-02-19 13:06 47.45039 8.93681 10067 ft 312 kts 104°
2026-02-19 13:07 47.44564 8.96915 10322 ft 330 kts 104°
2026-02-19 13:07 47.44077 9.00268 10577 ft 347 kts 103°
2026-02-19 13:07 47.43561 9.03827 10837 ft 362 kts 103°
2026-02-19 13:07 47.43027 9.07530 11156 ft 373 kts 103°
2026-02-19 13:08 47.42483 9.11308 11649 ft 379 kts 103°
2026-02-19 13:08 47.41710 9.19063 12783 ft 386 kts 87°
2026-02-19 13:08 47.42301 9.22918 13352 ft 387 kts 68°
2026-02-19 13:09 47.43407 9.26554 13904 ft 388 kts 62°
2026-02-19 13:09 47.44701 9.30056 14434 ft 389 kts 59°
2026-02-19 13:09 47.46089 9.33512 14959 ft 391 kts 58°
2026-02-19 13:09 47.47589 9.36868 15506 ft 391 kts 51°
2026-02-19 13:10 47.49505 9.39712 16028 ft 392 kts 37°
2026-02-19 13:10 47.51816 9.41738 16570 ft 391 kts 25°
2026-02-19 13:10 47.54324 9.43314 17084 ft 393 kts 20°
2026-02-19 13:10 47.56927 9.44640 17557 ft 396 kts 15°
2026-02-19 13:11 47.59647 9.45332 18023 ft 398 kts
2026-02-19 13:11 47.62421 9.45643 18414 ft 402 kts
2026-02-19 13:11 47.65232 9.45811 18769 ft 406 kts
2026-02-19 13:11 47.68070 9.45916 19148 ft 409 kts
2026-02-19 13:12 47.70932 9.46009 19508 ft 413 kts
2026-02-19 13:12 47.76823 9.46243 19656 ft 439 kts
2026-02-19 13:12 47.79894 9.46382 19661 ft 441 kts
2026-02-19 13:13 47.82934 9.46449 19667 ft 441 kts
2026-02-19 13:13 47.86005 9.46455 19665 ft 441 kts 360°
2026-02-19 13:13 47.89079 9.46432 19670 ft 441 kts 359°
2026-02-19 13:13 47.92157 9.46400 19668 ft 442 kts 359°
2026-02-19 13:14 47.95236 9.46371 19671 ft 442 kts 359°
2026-02-19 13:14 47.98319 9.46351 19669 ft 443 kts 359°
2026-02-19 13:14 48.01399 9.46338 19673 ft 443 kts 360°
2026-02-19 13:14 48.04484 9.46330 19672 ft 443 kts 360°
2026-02-19 13:15 48.07573 9.46324 19671 ft 443 kts 360°
2026-02-19 13:15 48.10623 9.46321 19674 ft 443 kts
2026-02-19 13:15 48.13710 9.46324 19671 ft 444 kts
2026-02-19 13:15 48.16802 9.46328 19668 ft 444 kts
2026-02-19 13:16 48.19891 9.46334 19671 ft 444 kts
2026-02-19 13:16 48.26080 9.46345 19660 ft 445 kts
2026-02-19 13:16 48.29178 9.46348 19664 ft 445 kts
2026-02-19 13:17 48.32277 9.46351 19664 ft 445 kts
2026-02-19 13:17 48.35370 9.46353 19661 ft 445 kts
2026-02-19 13:17 48.38472 9.46355 19660 ft 445 kts
2026-02-19 13:17 48.41579 9.46357 19656 ft 446 kts
2026-02-19 13:18 48.44690 9.46359 19653 ft 446 kts
2026-02-19 13:18 48.47794 9.46176 19644 ft 446 kts 353°
2026-02-19 13:18 48.50812 9.45127 19644 ft 446 kts 340°
2026-02-19 13:18 48.53524 9.43022 19642 ft 444 kts 324°
2026-02-19 13:19 48.55782 9.39868 19644 ft 442 kts 310°
2026-02-19 13:19 48.57685 9.36235 19637 ft 441 kts 304°
2026-02-19 13:19 48.59418 9.32423 19635 ft 440 kts 302°
2026-02-19 13:19 48.61248 9.28705 19635 ft 442 kts 310°
2026-02-19 13:20 48.63526 9.25588 19638 ft 443 kts 324°
2026-02-19 13:20 48.68922 9.21068 19636 ft 445 kts 335°
2026-02-19 13:20 48.71763 9.19178 19635 ft 445 kts 337°
2026-02-19 13:21 48.74635 9.17368 19640 ft 446 kts 337°
2026-02-19 13:21 48.77503 9.15574 19636 ft 446 kts 337°
2026-02-19 13:21 48.80367 9.13758 19638 ft 446 kts 337°
2026-02-19 13:21 48.83227 9.11911 19640 ft 447 kts 336°
2026-02-19 13:22 48.86116 9.10177 19636 ft 447 kts 342°
2026-02-19 13:22 48.89154 9.09214 19637 ft 447 kts 355°
2026-02-19 13:22 48.92227 9.09078 19645 ft 447 kts
2026-02-19 13:22 48.95317 9.09298 19450 ft 442 kts
2026-02-19 13:23 48.98372 9.09719 19201 ft 440 kts
2026-02-19 13:23 49.01419 9.10226 18952 ft 439 kts
2026-02-19 13:23 49.04450 9.10748 18714 ft 437 kts
2026-02-19 13:23 49.07469 9.11252 18471 ft 436 kts
2026-02-19 13:24 49.10480 9.11730 18231 ft 434 kts
2026-02-19 13:24 49.16490 9.12625 17721 ft 431 kts
2026-02-19 13:25 49.22403 9.13473 17175 ft 427 kts
2026-02-19 13:25 49.25360 9.13891 16912 ft 426 kts
2026-02-19 13:25 49.28304 9.14308 16652 ft 424 kts
2026-02-19 13:25 49.31242 9.14724 16384 ft 423 kts
2026-02-19 13:26 49.34173 9.15141 16122 ft 421 kts
2026-02-19 13:26 49.37091 9.15557 15859 ft 420 kts
2026-02-19 13:26 49.39993 9.15972 15599 ft 418 kts
2026-02-19 13:26 49.42854 9.16381 15347 ft 417 kts
2026-02-19 13:27 49.45774 9.16800 15104 ft 415 kts
2026-02-19 13:27 49.48604 9.17205 14859 ft 414 kts
2026-02-19 13:27 49.51468 9.17617 14598 ft 412 kts
2026-02-19 13:27 49.54324 9.18027 14348 ft 411 kts
2026-02-19 13:28 49.57166 9.18437 14107 ft 409 kts
2026-02-19 13:28 49.62816 9.19279 13615 ft 406 kts
2026-02-19 13:28 49.65521 9.20438 13358 ft 404 kts 25°
2026-02-19 13:29 49.67894 9.22737 13094 ft 401 kts 39°
2026-02-19 13:29 49.69996 9.25553 12817 ft 399 kts 44°
2026-02-19 13:29 49.72114 9.28318 12545 ft 398 kts 37°
2026-02-19 13:29 49.74501 9.30471 12282 ft 397 kts 24°
2026-02-19 13:30 49.77089 9.31727 12015 ft 395 kts
2026-02-19 13:30 49.79827 9.31804 11746 ft 392 kts 352°
2026-02-19 13:30 49.82424 9.30601 11500 ft 389 kts 334°
2026-02-19 13:30 49.84647 9.28261 11251 ft 385 kts 316°
2026-02-19 13:31 49.86308 9.25051 10984 ft 381 kts 299°
2026-02-19 13:31 49.87295 9.21288 10735 ft 377 kts 282°
2026-02-19 13:31 49.87698 9.17289 10489 ft 374 kts 275°
2026-02-19 13:31 49.87949 9.13286 10238 ft 373 kts 274°
2026-02-19 13:32 49.88196 9.09293 9994 ft 371 kts 274°
2026-02-19 13:32 49.88719 9.01413 9475 ft 362 kts 275°
2026-02-19 13:32 49.88982 8.97601 9232 ft 347 kts 275°
2026-02-19 13:33 49.89237 8.93957 9001 ft 333 kts 275°
2026-02-19 13:33 49.89485 8.90462 8829 ft 318 kts 275°
2026-02-19 13:33 49.89722 8.87124 8712 ft 303 kts 275°
2026-02-19 13:33 49.89947 8.83940 8591 ft 290 kts 275°
2026-02-19 13:34 49.90159 8.80896 8471 ft 280 kts 275°
2026-02-19 13:34 49.90367 8.77886 8343 ft 281 kts 275°
2026-02-19 13:34 49.90574 8.74874 8214 ft 281 kts 275°
2026-02-19 13:34 49.90780 8.71862 8074 ft 280 kts 275°
2026-02-19 13:35 49.90986 8.68850 7957 ft 280 kts 275°
2026-02-19 13:35 49.91187 8.65885 7749 ft 279 kts 275°
2026-02-19 13:35 49.91389 8.62891 7492 ft 278 kts 275°
2026-02-19 13:35 49.91589 8.59922 7240 ft 276 kts 275°
2026-02-19 13:36 49.91787 8.56959 6982 ft 275 kts 275°
2026-02-19 13:36 49.92182 8.51064 6480 ft 273 kts 275°
2026-02-19 13:36 49.92377 8.48142 6229 ft 271 kts 275°
2026-02-19 13:37 49.92569 8.45230 5982 ft 270 kts 275°
2026-02-19 13:37 49.92759 8.42361 5715 ft 270 kts 275°
2026-02-19 13:37 49.92950 8.39461 5453 ft 270 kts 275°
2026-02-19 13:37 49.93139 8.36562 5189 ft 270 kts 275°
2026-02-19 13:38 49.93328 8.33667 4963 ft 269 kts 275°
2026-02-19 13:38 49.93516 8.30771 4825 ft 269 kts 275°
2026-02-19 13:38 49.93700 8.27940 4703 ft 258 kts 275°
2026-02-19 13:38 49.93874 8.25227 4576 ft 247 kts 274°
2026-02-19 13:39 49.94041 8.22616 4472 ft 239 kts 274°